Welcome to the New NWS' Forecast!
Most changes are behind the scenes, but click here for differences you might notice.

Regional Weather Roundup (RWR)

Issued by National Weather Service (NWS)

                            
000
ASUS42 KTBW 150516
RWRFL 
FLORIDA REGIONAL WEATHER ROUNDUP
NATIONAL WEATHER SERVICE TAMPA BAY RUSKIN FL
1200 AM EST THU NOV 15 2018

NOTE: "FAIR" INDICATES FEW OR NO CLOUDS BELOW 12,000 FEET WITH NO
SIGNIFICANT WEATHER AND/OR OBSTRUCTIONS TO VISIBILITY.

FLZ001>010-012>015-112-114-115-150600-
PANHANDLE FLORIDA
  
CITY           SKY/WX    TMP DP  RH WIND       PRES   REMARKS
PENSACOLA      CLOUDY    41  39  93 N13       30.19F WCI  34          
MILTON NAS     CLOUDY    40  39  97 N8        30.19  WCI  34          
CRESTVIEW      LGT RAIN  42  39  89 N8        30.18F WCI  37          
DUKE FIELD     LGT RAIN  42  41  96 N10       30.16F WCI  36          
VALPARAISO     LGT RAIN  42  41  93 N13G20    30.17F WCI  36          
MARY ESTHER    CLOUDY    42  40  93 N13       30.17S WCI  35          
PANAMA CITY    RAIN      47  45  93 W14       30.14S WCI  41          
TYNDALL AFB    LGT RAIN  52  50  93 NW13G21   30.14F                  
APALACHICOLA   CLOUDY    56  54  93 NW7       30.09S                  

STATION/POSITION SKY/WX   TEMP    WIND        PRES    WAVE   SWELL
                          AIR SEA DIR/SP/G            HT/PER HT/PER
                          (F)     (DEG/KT/KT) (MB)    (FT/S) (FT/S)
30.1N   87.6W              45                 1023.0F   3/ 5
29.2N   88.2W                 77  320/ 17/ 23 1023.4
PANAMA CITY BEAC           50 71  310/ 14/ 18 1021.4
TOWER C                    61      10/ 13/ 15 1018.6F

$$
FLZ011-016>038-118-127-128-134-139-239-150600-
NORTH FLORIDA
  
CITY           SKY/WX    TMP DP  RH WIND       PRES   REMARKS
MARIANNA       LGT RAIN  69  54  58 NW9       30.11S                  
TALLAHASSEE    LGT RAIN  56  56 100 N7        30.08F                  
PERRY          RAIN      58  57  97 N10       30.05F                  
LIVE OAK       CLOUDY    55  55 100 NW9       30.05F                  
CROSS CITY     LGT RAIN  57  56  97 N9        30.03S                  
LAKE CITY      RAIN      55  55 100 N13G21    30.02F                  
GAINESVILLE    LGT RAIN  69  68  96 E5        29.99F FOG              
WILLISTON        N/A    N/A N/A N/A MISG        N/A                   
JACKSONVILLE   LGT RAIN  69  67  93 N8        29.98F                  
JAX NAS        LGT RAIN  71  70  96 N10       29.98F                  
JAX CECIL      LGT RAIN  70  68  94 NE3       29.97F                  
FERNANDINA BEA CLOUDY    69  67  93 NE21G28   29.97F                  
ST AUGUSTINE   MOCLDY    72  71  97 CALM      29.98S                  
PALM COAST     FAIR      72  72  99 S3        29.97S FOG              

STATION/POSITION SKY/WX   TEMP    WIND        PRES    WAVE   SWELL
                          AIR SEA DIR/SP/G            HT/PER HT/PER
                          (F)     (DEG/KT/KT) (MB)    (FT/S) (FT/S)
SHELL POINT      NOT AVBL
KEATON BEACH               57     350/  4/  6 1017.8R
CEDAR KEY                  60     360/ 16/ 22 1015.8F
FERNANDINA                    71   30/ 12/ 19 1015.8F
30.7N   81.3W                 71                N/A     8/ 8   2/11
MAYPORT                    72 72   60/ 23/ 25 1015.0F
31.4N   80.9W              66 71  190/ 10/ 19 1014.7F  10/ 8   8/ 8
ST AUGUSTINE               75 74  360/  3/  4 1014.8F

$$
FLZ040-043>046-052-053-057-058-063-144-150600-
INTERIOR CENTRAL FLORIDA
  
CITY           SKY/WX    TMP DP  RH WIND       PRES   REMARKS
OCALA          LGT RAIN  70  69  97 CALM      29.98S                  
LEESBURG       CLOUDY    74  72  93 SW7       29.97F                  
SANFORD        FAIR      76  75  97 SE8       29.97F                  
ORLANDO EXEC   FAIR      75  73  93 S8        29.97F                  
ORLANDO INTL   FAIR      75  73  93 SE9       29.97F                  
KISSIMMEE      MOCLDY    76  74  93 S8        29.99F                  
WINTER HAVEN   FAIR      75  71  87 S7        29.99F                  
LAKELAND       FAIR      72  70  94 S8        29.98F                  
BARTOW         FAIR      72 N/A N/A S9        29.97F                  
SEBRING        FAIR      76  73  91 CALM      29.99F                  
OKEECHOBEE     FAIR      77  73  88 S6        29.99F                  

$$
FLZ041-047-054-059-064-141-147-150600-
EAST CENTRAL FLORIDA
  
CITY           SKY/WX    TMP DP  RH WIND       PRES   REMARKS
DAYTONA BEACH  MOCLDY    76  76 100 S9        29.97F                  
DELAND         FAIR      75  73  94 S10       29.97F                  
JFK SPACE CTR  FAIR      78  74  90 S6        29.97F                  
CAPE CANAVERAL FAIR      79  75  87 S14       29.96F                  
PATRICK AFB    FAIR      79  79  99 S9        29.97F                  
MELBOURNE      FAIR      78  74  87 S8        29.98F                  
VERO BEACH     FAIR      78  74  87 S8        29.99F                  
FT PIERCE      FAIR      76  73  91 S5        30.00S                  
STUART         FAIR      77  72  83 CALM      30.01F                  

STATION/POSITION SKY/WX   TEMP    WIND        PRES    WAVE   SWELL
                          AIR SEA DIR/SP/G            HT/PER HT/PER
                          (F)     (DEG/KT/KT) (MB)    (FT/S) (FT/S)
28.5N   80.2W              81     150/ 19/ 23 1015.3F   4/ 8   3/ 8
28.9N   78.5W              81 82  150/ 17/ 23 1016.3F
TRIDENT PIER               79 80  150/ 13/ 16 1016.5F
28.4N   80.5W                 79                N/A     3/ 8
27.5N   80.2W                 80                N/A     3/ 8

$$
FLZ050-056-061-142-242-148-248-149-249-151-251-155-255-
160-260-150600-
WEST CENTRAL FLORIDA
  
CITY           SKY/WX    TMP DP  RH WIND       PRES   REMARKS
CRYSTAL RIVER  CLOUDY    70  68  94 CALM      29.98S                  
BROOKSVILLE    FAIR      73  71  93 S6        29.97F                  
CLEARWATER AIR CLOUDY    70  70 100 NW15G23   29.98S                  
ST PETE CLEARW CLOUDY    73  72  96 NW13G22   29.98S                  
TAMPA INTL     CLOUDY    75  72  90 SW9       29.97F                  
TAMPA EXEC     CLOUDY    73  72  94 S7        29.97F                  
PLANT CITY     FAIR      73  72  94 S7        29.99F                  
MACDILL AFB    MOCLDY    75  72  88 SW8       29.97F                  
PETER O KNIGHT CLOUDY   N/A N/A N/A S10       29.97F                  
ST PETERSBURG  HVY RAIN  74  72  93 NW9       29.96S FOG              
SARASOTA       FAIR      77  73  87 SE8       29.96F                  
VENICE         FAIR      75  73  94 SE5       29.99F                  

STATION/POSITION SKY/WX   TEMP    WIND        PRES    WAVE   SWELL
                          AIR SEA DIR/SP/G            HT/PER HT/PER
                          (F)     (DEG/KT/KT) (MB)    (FT/S) (FT/S)
CLEARWATER BEACH           72 79  320/ 25/ 29 1015.2F
MIDDLE TAMPA BAY           77     190/  7/  8 1015.0F
VENICE                     76 80  140/  5/  6 1015.1F

$$
FLZ066-069-070-075>078-162-262-165-265-150600-
SOUTHWEST FLORIDA AND KEYS
  
CITY           SKY/WX    TMP DP  RH WIND       PRES   REMARKS
PUNTA GORDA    FAIR      73  71  93 CALM      30.01F                  
FT MYERS       FAIR      73  73 100 E3        29.98F                  
SOUTHWEST INTL FAIR      72  72 100 CALM      29.99F                  
NAPLES         FAIR      76  73  91 SE5       29.99F                  
MARCO ISLAND   FAIR      75  74  96 E3        30.00F                  
IMMOKALEE      CLEAR     72  70  94 CALM      30.00F FOG              
MARATHON       FAIR      80  75  84 SE8       29.99F                  
KEY WEST INTL  FAIR      83  74  74 SE12      29.98F                  

STATION/POSITION SKY/WX   TEMP    WIND        PRES    WAVE   SWELL
                          AIR SEA DIR/SP/G            HT/PER HT/PER
                          (F)     (DEG/KT/KT) (MB)    (FT/S) (FT/S)
NAPLES                     78 81              1015.6F
26.0N   85.6W              72 81  340/ 21/ 27 1018.9
DRY TORTUGAS               81     110/  5/  5 1015.1F
SAND KEY                   81                 1015.2F
SOMBRERO KEY               81     110/ 12/ 14 1014.9F
LONG KEY                   81 82  110/  8/  8 1015.4F
MOLASSES REEF              81 82   70/  1/  3 1015.8F

$$
FLZ067-068-071>074-168-172>174-150600-
SOUTHEAST FLORIDA 
  
CITY           SKY/WX    TMP DP  RH WIND       PRES   REMARKS
W PALM BEACH   FAIR      78  75  90 SE9       30.00F                  
FT LAUDER-EXEC FAIR      80  76  87 SE7       30.00F                  
FT LAUDERDALE  FAIR      80  77  90 SE10      29.99F                  
POMPANO BEACH  FAIR      81  75  82 SE14      30.00F                  
PEMBROKE PINES LGT RAIN  81  76  84 SE9       30.01F                  
OPA LOCKA      FAIR      80  76  87 SE9       30.00F                  
MIAMI          FAIR      80  76  87 E8        30.00F                  
WEST KENDALL   MOCLDY    81  75  82 SE9       29.99F                  
HOMESTEAD      MOCLDY    79  77  94 E8        29.98F                  

STATION/POSITION SKY/WX   TEMP    WIND        PRES    WAVE   SWELL
                          AIR SEA DIR/SP/G            HT/PER HT/PER
                          (F)     (DEG/KT/KT) (MB)    (FT/S) (FT/S)
PORT EVERGLADES            81     130/ 10/ 13 1015.9F
VIRGINIA KEY               81 83  100/  8/ 11 1015.6F
LAKE WORTH                 81 81  160/ 14/ 16 1017.1F
FOWEY ROCKS                81 81  120/ 17/ 19 1016.1F
SETTLEMENT POINT           79     130/  7/  8 1016.4F

$$